View from above orbital plane
|
View from above satellite
|
Ground track
|
The orbit data is extracted from the following two-line orbital elements,
1 42790U 17036AB 21016.82318220 .00001941 00000-0 79437-4 0 9994
2 42790 97.2770 72.5766 0010224 359.0242 1.0974 15.25462830198367
Epoch (UTC): | 16 January 2021 19:45:22 |
Eccentricity: | 0.0010224 |
inclination: | 97.2770° |
perigee height: | 482 km |
apogee height: | 496 km |
right ascension of ascending node: | 72.5766° |
argument of perigee: | 359.0242° |
revolutions per day: | 15.25462830 |
mean anomaly at epoch: | 1.0974° |
orbit number at epoch: | 19836 |
The dashed part of the orbit path shows where the satellite is in the earth's shadow,
|
|